Time,TemperatureF,DewpointF,PressureIn,WindDirection,WindDirectionDegrees,WindSpeedMPH,WindSpeedGustMPH,Humidity,HourlyPrecipIn,Conditions,Clouds,dailyrainin,SoftwareType,DateUTC
2013-05-31 00:02:00,75.0,63.0,30.01,SSE,168,0.0,5.0,66,0.00,,,0.00,,2013-05-31 04:02:00,
2013-05-31 00:12:00,75.0,63.0,30.01,SSE,168,0.0,5.0,66,0.00,,,0.00,,2013-05-31 04:12:00,
2013-05-31 00:22:00,75.0,63.0,30.01,SSE,153,2.0,6.0,67,0.00,,,0.00,,2013-05-31 04:22:00,
2013-05-31 00:33:00,75.0,63.0,30.01,SSE,161,2.0,7.0,67,0.00,,,0.00,,2013-05-31 04:33:00,
2013-05-31 00:42:00,75.0,63.0,30.01,SSE,161,2.0,7.0,67,0.00,,,0.00,,2013-05-31 04:42:00,
2013-05-31 00:53:00,74.0,63.0,30.01,SE,136,1.0,4.0,68,0.00,,,0.00,,2013-05-31 04:53:00,
2013-05-31 01:02:00,74.0,64.0,30.01,SE,145,1.0,3.0,70,0.00,,,0.00,,2013-05-31 05:02:00,
2013-05-31 01:12:00,74.0,64.0,30.01,SE,145,1.0,3.0,70,0.00,,,0.00,,2013-05-31 05:12:00,
2013-05-31 01:22:00,73.0,63.0,30.02,SSE,157,2.0,4.0,71,0.00,,,0.00,,2013-05-31 05:22:00,
2013-05-31 01:32:00,73.0,63.0,30.01,SSE,151,1.0,6.0,72,0.00,,,0.00,,2013-05-31 05:32:00,
2013-05-31 01:42:00,73.0,63.0,30.01,SSE,151,1.0,6.0,72,0.00,,,0.00,,2013-05-31 05:42:00,
2013-05-31 01:52:00,73.0,64.0,30.02,SE,142,1.0,5.0,73,0.00,,,0.00,,2013-05-31 05:52:00,
2013-05-31 02:02:00,72.0,63.0,30.02,SSE,163,2.0,4.0,73,0.00,,,0.00,,2013-05-31 06:02:00,
2013-05-31 02:12:00,72.0,63.0,30.02,SSE,163,2.0,4.0,73,0.00,,,0.00,,2013-05-31 06:12:00,
2013-05-31 02:22:00,72.0,63.0,30.01,SSE,157,1.0,5.0,74,0.00,,,0.00,,2013-05-31 06:22:00,
2013-05-31 02:32:00,72.0,64.0,30.01,SSE,154,3.0,6.0,75,0.00,,,0.00,,2013-05-31 06:32:00,
2013-05-31 02:42:00,72.0,64.0,30.01,SSE,154,3.0,6.0,75,0.00,,,0.00,,2013-05-31 06:42:00,
2013-05-31 02:51:00,71.0,63.0,30.01,SSE,151,1.0,3.0,77,0.00,,,0.00,,2013-05-31 06:51:00,
2013-05-31 03:02:00,71.0,63.0,30.01,SSE,157,1.0,6.0,77,0.00,,,0.00,,2013-05-31 07:02:00,
2013-05-31 03:11:00,71.0,63.0,30.01,SSE,157,1.0,6.0,77,0.00,,,0.00,,2013-05-31 07:11:00,
2013-05-31 03:21:00,70.0,63.0,30.00,SSE,155,2.0,5.0,78,0.00,,,0.00,,2013-05-31 07:21:00,
2013-05-31 03:32:00,70.0,63.0,30.00,SSE,155,2.0,5.0,79,0.00,,,0.00,,2013-05-31 07:32:00,
2013-05-31 03:42:00,70.0,63.0,30.00,SSE,155,2.0,5.0,79,0.00,,,0.00,,2013-05-31 07:42:00,
2013-05-31 03:52:00,70.0,63.0,30.00,SSE,159,3.0,5.0,79,0.00,,,0.00,,2013-05-31 07:52:00,
2013-05-31 04:02:00,70.0,63.0,30.00,SSE,161,4.0,8.0,78,0.00,,,0.00,,2013-05-31 08:02:00,
2013-05-31 04:11:00,70.0,63.0,30.00,SSE,161,4.0,8.0,78,0.00,,,0.00,,2013-05-31 08:11:00,
2013-05-31 04:22:00,70.0,63.0,30.00,SE,145,3.0,8.0,78,0.00,,,0.00,,2013-05-31 08:22:00,
2013-05-31 04:32:00,70.0,63.0,29.99,SSE,149,4.0,8.0,78,0.00,,,0.00,,2013-05-31 08:32:00,
2013-05-31 04:42:00,70.0,63.0,29.99,SSE,149,4.0,8.0,78,0.00,,,0.00,,2013-05-31 08:42:00,
2013-05-31 04:51:00,70.0,63.0,30.00,SSE,153,2.0,6.0,78,0.00,,,0.00,,2013-05-31 08:51:00,
2013-05-31 05:01:00,70.0,63.0,30.00,SSE,148,4.0,7.0,79,0.00,,,0.00,,2013-05-31 09:01:00,
2013-05-31 05:11:00,70.0,63.0,30.00,SSE,148,4.0,7.0,79,0.00,,,0.00,,2013-05-31 09:11:00,
2013-05-31 05:21:00,69.0,62.0,30.00,SSE,150,2.0,7.0,79,0.00,,,0.00,,2013-05-31 09:21:00,
2013-05-31 05:32:00,69.0,63.0,30.00,SSE,150,1.0,6.0,80,0.00,,,0.00,,2013-05-31 09:32:00,
2013-05-31 05:43:00,69.0,63.0,30.00,SSE,150,1.0,6.0,80,0.00,,,0.00,,2013-05-31 09:43:00,
2013-05-31 05:53:00,69.0,63.0,30.00,SE,138,3.0,5.0,81,0.00,,,0.00,,2013-05-31 09:53:00,
2013-05-31 06:02:00,68.0,62.0,30.01,SSE,157,1.0,5.0,81,0.00,,,0.00,,2013-05-31 10:02:00,
2013-05-31 06:12:00,68.0,62.0,30.01,SSE,157,1.0,5.0,81,0.00,,,0.00,,2013-05-31 10:12:00,
2013-05-31 06:23:00,69.0,63.0,30.01,SSE,158,2.0,5.0,81,0.00,,,0.00,,2013-05-31 10:23:00,
2013-05-31 06:33:00,68.0,62.0,30.01,SSE,155,2.0,5.0,82,0.00,,,0.00,,2013-05-31 10:33:00,
2013-05-31 06:42:00,68.0,62.0,30.01,SSE,155,2.0,5.0,82,0.00,,,0.00,,2013-05-31 10:42:00,
2013-05-31 06:52:00,68.0,62.0,30.01,SSE,148,1.0,6.0,82,0.00,,,0.00,,2013-05-31 10:52:00,
2013-05-31 07:02:00,68.0,63.0,30.01,South,177,4.0,7.0,83,0.00,,,0.00,,2013-05-31 11:02:00,
2013-05-31 07:12:00,68.0,63.0,30.01,South,177,4.0,7.0,83,0.00,,,0.00,,2013-05-31 11:12:00,
2013-05-31 07:22:00,68.0,63.0,30.01,SE,146,4.0,8.0,83,0.00,,,0.00,,2013-05-31 11:22:00,
2013-05-31 07:32:00,69.0,63.0,30.01,SSE,165,3.0,7.0,82,0.00,,,0.00,,2013-05-31 11:32:00,
2013-05-31 07:42:00,69.0,63.0,30.01,SSE,165,3.0,7.0,82,0.00,,,0.00,,2013-05-31 11:42:00,
2013-05-31 07:52:00,70.0,64.0,30.00,SSE,155,3.0,7.0,80,0.00,,,0.00,,2013-05-31 11:52:00,
2013-05-31 08:01:00,71.0,64.0,30.00,SE,144,4.0,7.0,79,0.00,,,0.00,,2013-05-31 12:01:00,
2013-05-31 08:11:00,71.0,64.0,30.00,SE,144,4.0,7.0,79,0.00,,,0.00,,2013-05-31 12:11:00,
2013-05-31 08:22:00,72.0,64.0,30.01,SSE,153,1.0,6.0,77,0.00,,,0.00,,2013-05-31 12:22:00,
2013-05-31 08:32:00,74.0,65.0,30.00,South,171,3.0,7.0,73,0.00,,,0.00,,2013-05-31 12:32:00,
2013-05-31 08:42:00,74.0,65.0,30.00,South,171,3.0,7.0,73,0.00,,,0.00,,2013-05-31 12:42:00,
2013-05-31 08:52:00,75.0,64.0,30.01,South,191,3.0,11.0,69,0.00,,,0.00,,2013-05-31 12:52:00,
2013-05-31 09:01:00,76.0,64.0,30.01,SSE,155,3.0,12.0,67,0.00,,,0.00,,2013-05-31 13:01:00,
2013-05-31 09:11:00,76.0,64.0,30.01,SSE,155,3.0,12.0,67,0.00,,,0.00,,2013-05-31 13:11:00,
2013-05-31 09:21:00,77.0,65.0,30.01,SSE,162,2.0,12.0,66,0.00,,,0.00,,2013-05-31 13:21:00,
2013-05-31 09:32:00,77.0,65.0,30.01,WSW,246,5.0,14.0,67,0.00,,,0.00,,2013-05-31 13:32:00,
2013-05-31 09:42:00,77.0,65.0,30.01,WSW,246,5.0,14.0,67,0.00,,,0.00,,2013-05-31 13:42:00,
2013-05-31 09:52:00,78.0,65.0,30.01,SW,235,6.0,11.0,65,0.00,,,0.00,,2013-05-31 13:52:00,
2013-05-31 10:02:00,78.0,65.0,30.01,SSW,192,4.0,14.0,65,0.00,,,0.00,,2013-05-31 14:02:00,
2013-05-31 10:11:00,78.0,65.0,30.01,SSW,192,4.0,14.0,65,0.00,,,0.00,,2013-05-31 14:11:00,
2013-05-31 10:21:00,79.0,66.0,30.01,WSW,248,5.0,14.0,64,0.00,,,0.00,,2013-05-31 14:21:00,
2013-05-31 10:32:00,79.0,65.0,30.00,SSE,149,5.0,12.0,63,0.00,,,0.00,,2013-05-31 14:32:00,
2013-05-31 10:42:00,79.0,65.0,30.00,SSE,149,5.0,12.0,63,0.00,,,0.00,,2013-05-31 14:42:00,
2013-05-31 10:52:00,80.0,66.0,30.00,SE,144,5.0,14.0,62,0.00,,,0.00,,2013-05-31 14:52:00,
2013-05-31 11:01:00,81.0,66.0,29.99,WSW,239,5.0,12.0,61,0.00,,,0.00,,2013-05-31 15:01:00,
2013-05-31 11:11:00,81.0,66.0,29.99,WSW,239,5.0,12.0,61,0.00,,,0.00,,2013-05-31 15:11:00,
2013-05-31 11:21:00,81.0,65.0,29.99,West,259,2.0,11.0,59,0.00,,,0.00,,2013-05-31 15:21:00,
2013-05-31 11:33:00,82.0,65.0,29.98,SSW,213,4.0,12.0,56,0.00,,,0.00,,2013-05-31 15:33:00,
2013-05-31 11:43:00,82.0,65.0,29.98,SSW,213,4.0,12.0,56,0.00,,,0.00,,2013-05-31 15:43:00,
2013-05-31 11:53:00,83.0,66.0,29.98,WNW,294,6.0,12.0,56,0.00,,,0.00,,2013-05-31 15:53:00,
2013-05-31 12:03:00,83.0,65.0,29.98,SSW,195,5.0,11.0,54,0.00,,,0.00,,2013-05-31 16:03:00,
2013-05-31 12:12:00,83.0,65.0,29.98,SSW,195,5.0,11.0,54,0.00,,,0.00,,2013-05-31 16:12:00,
2013-05-31 12:22:00,84.0,66.0,29.98,SW,234,4.0,12.0,54,0.00,,,0.00,,2013-05-31 16:22:00,
2013-05-31 12:33:00,83.0,65.0,29.97,SW,224,5.0,16.0,54,0.00,,,0.00,,2013-05-31 16:33:00,
2013-05-31 12:42:00,83.0,65.0,29.97,SW,224,5.0,16.0,54,0.00,,,0.00,,2013-05-31 16:42:00,
2013-05-31 12:52:00,84.0,65.0,29.97,SW,230,3.0,20.0,53,0.00,,,0.00,,2013-05-31 16:52:00,
2013-05-31 13:02:00,85.0,66.0,29.96,WSW,247,8.0,14.0,53,0.00,,,0.00,,2013-05-31 17:02:00,
2013-05-31 13:12:00,85.0,66.0,29.96,WSW,247,8.0,14.0,53,0.00,,,0.00,,2013-05-31 17:12:00,
2013-05-31 13:22:00,85.0,65.0,29.96,SSW,203,7.0,16.0,52,0.00,,,0.00,,2013-05-31 17:22:00,
2013-05-31 13:32:00,85.0,65.0,29.96,South,179,5.0,13.0,52,0.00,,,0.00,,2013-05-31 17:32:00,
2013-05-31 13:42:00,85.0,65.0,29.96,South,179,5.0,13.0,52,0.00,,,0.00,,2013-05-31 17:42:00,
2013-05-31 13:52:00,85.0,65.0,29.95,SE,143,8.0,23.0,52,0.00,,,0.00,,2013-05-31 17:52:00,
2013-05-31 14:02:00,85.0,65.0,29.94,SE,144,7.0,18.0,52,0.00,,,0.00,,2013-05-31 18:02:00,
2013-05-31 14:12:00,85.0,65.0,29.94,SE,144,7.0,18.0,52,0.00,,,0.00,,2013-05-31 18:12:00,
2013-05-31 14:22:00,85.0,65.0,29.93,SSE,161,6.0,16.0,52,0.00,,,0.00,,2013-05-31 18:22:00,
2013-05-31 14:32:00,85.0,65.0,29.93,SE,145,5.0,13.0,52,0.00,,,0.00,,2013-05-31 18:32:00,
2013-05-31 14:42:00,85.0,65.0,29.93,SE,145,5.0,13.0,52,0.00,,,0.00,,2013-05-31 18:42:00,
2013-05-31 14:52:00,85.0,65.0,29.91,SW,217,8.0,18.0,52,0.00,,,0.00,,2013-05-31 18:52:00,
2013-05-31 15:02:00,85.0,65.0,29.91,SSE,152,7.0,13.0,52,0.00,,,0.00,,2013-05-31 19:02:00,
2013-05-31 15:11:00,85.0,65.0,29.91,SSE,152,7.0,13.0,52,0.00,,,0.00,,2013-05-31 19:11:00,
2013-05-31 15:22:00,84.0,65.0,29.91,SSW,213,6.0,19.0,53,0.00,,,0.00,,2013-05-31 19:22:00,
2013-05-31 15:32:00,84.0,66.0,29.91,SW,221,5.0,18.0,54,0.00,,,0.00,,2013-05-31 19:32:00,
2013-05-31 15:42:00,84.0,66.0,29.91,SW,221,5.0,18.0,54,0.00,,,0.00,,2013-05-31 19:42:00,
2013-05-31 15:52:00,85.0,67.0,29.91,SW,223,4.0,16.0,55,0.00,,,0.00,,2013-05-31 19:52:00,
2013-05-31 16:02:00,85.0,66.0,29.91,WNW,283,7.0,17.0,54,0.00,,,0.00,,2013-05-31 20:02:00,
2013-05-31 16:11:00,85.0,66.0,29.91,WNW,283,7.0,17.0,54,0.00,,,0.00,,2013-05-31 20:11:00,
2013-05-31 16:22:00,83.0,67.0,29.91,SSE,148,6.0,15.0,59,0.00,,,0.00,,2013-05-31 20:22:00,
2013-05-31 16:32:00,84.0,68.0,29.90,SSE,150,6.0,11.0,58,0.00,,,0.00,,2013-05-31 20:32:00,
2013-05-31 16:42:00,84.0,68.0,29.90,SSE,150,6.0,11.0,58,0.00,,,0.00,,2013-05-31 20:42:00,
2013-05-31 16:52:00,84.0,66.0,29.90,South,188,9.0,18.0,55,0.00,,,0.00,,2013-05-31 20:52:00,
2013-05-31 17:01:00,83.0,66.0,29.89,SSE,155,6.0,14.0,57,0.00,,,0.00,,2013-05-31 21:01:00,
2013-05-31 17:11:00,83.0,66.0,29.89,SSE,155,6.0,14.0,57,0.00,,,0.00,,2013-05-31 21:11:00,
2013-05-31 17:22:00,83.0,66.0,29.90,SW,227,4.0,14.0,57,0.00,,,0.00,,2013-05-31 21:22:00,
2013-05-31 17:33:00,74.0,64.0,29.93,WNW,296,8.0,28.0,72,0.00,,,0.00,,2013-05-31 21:33:00,
2013-05-31 17:43:00,74.0,64.0,29.93,WNW,296,8.0,28.0,72,0.00,,,0.00,,2013-05-31 21:43:00,
2013-05-31 17:53:00,70.0,64.0,29.94,WNW,300,10.0,17.0,81,0.00,,,0.00,,2013-05-31 21:53:00,
2013-05-31 18:03:00,69.0,64.0,29.93,West,276,5.0,11.0,85,0.00,,,0.00,,2013-05-31 22:03:00,
2013-05-31 18:12:00,69.0,64.0,29.93,West,276,5.0,11.0,85,0.00,,,0.00,,2013-05-31 22:12:00,
2013-05-31 18:22:00,69.0,65.0,29.92,West,279,5.0,10.0,88,0.00,,,0.00,,2013-05-31 22:22:00,
2013-05-31 18:33:00,70.0,67.0,29.94,West,263,10.0,18.0,89,0.09,,,0.09,,2013-05-31 22:33:00,
2013-05-31 18:42:00,68.0,66.0,29.92,SSE,151,2.0,6.0,93,0.26,,,0.26,,2013-05-31 22:42:00,
2013-05-31 18:52:00,68.0,66.0,29.92,SSE,151,2.0,6.0,93,0.26,,,0.26,,2013-05-31 22:52:00,
2013-05-31 19:02:00,68.0,66.0,29.91,East,87,0.0,2.0,93,0.27,,,0.27,,2013-05-31 23:02:00,
2013-05-31 19:12:00,68.0,66.0,29.91,East,87,0.0,2.0,93,0.27,,,0.27,,2013-05-31 23:12:00,
2013-05-31 19:21:00,68.0,66.0,29.91,East,91,0.0,1.0,94,0.27,,,0.27,,2013-05-31 23:21:00,
2013-05-31 19:32:00,68.0,66.0,29.93,East,91,0.0,0.0,94,0.16,,,0.27,,2013-05-31 23:32:00,
2013-05-31 19:42:00,68.0,66.0,29.93,East,91,0.0,0.0,94,0.16,,,0.27,,2013-05-31 23:42:00,
2013-05-31 19:52:00,67.0,65.0,29.97,WSW,247,3.0,17.0,93,0.25,,,0.51,,2013-05-31 23:52:00,
2013-05-31 20:01:00,66.0,64.0,29.96,South,175,0.0,8.0,94,0.30,,,0.56,,2013-06-01 00:01:00,
2013-05-31 20:12:00,66.0,64.0,29.96,South,175,0.0,8.0,94,0.30,,,0.56,,2013-06-01 00:12:00,
2013-05-31 20:22:00,67.0,66.0,29.96,South,173,1.0,5.0,95,0.33,,,0.60,,2013-06-01 00:22:00,
2013-05-31 20:32:00,67.0,66.0,29.95,SSW,192,0.0,4.0,95,0.35,,,0.62,,2013-06-01 00:32:00,
2013-05-31 20:42:00,67.0,66.0,29.94,SSW,192,0.0,3.0,96,0.13,,,0.64,,2013-06-01 00:42:00,
2013-05-31 20:52:00,67.0,66.0,29.94,SSW,192,0.0,3.0,96,0.13,,,0.64,,2013-06-01 00:52:00,
2013-05-31 21:02:00,67.0,66.0,29.94,SSW,192,0.0,1.0,96,0.08,,,0.65,,2013-06-01 01:02:00,
2013-05-31 21:11:00,67.0,66.0,29.94,SSW,192,0.0,1.0,96,0.08,,,0.65,,2013-06-01 01:11:00,
2013-05-31 21:22:00,67.0,66.0,29.93,SSW,192,0.0,3.0,96,0.05,,,0.65,,2013-06-01 01:22:00,
2013-05-31 21:32:00,67.0,66.0,29.93,SSW,192,0.0,2.0,96,0.03,,,0.65,,2013-06-01 01:32:00,
2013-05-31 21:42:00,66.0,65.0,29.92,SSW,192,1.0,3.0,96,0.01,,,0.65,,2013-06-01 01:42:00,
2013-05-31 21:52:00,66.0,65.0,29.92,SSW,192,1.0,3.0,96,0.01,,,0.65,,2013-06-01 01:52:00,
2013-05-31 22:02:00,66.0,65.0,29.92,SSW,192,2.0,4.0,96,0.00,,,0.65,,2013-06-01 02:02:00,
2013-05-31 22:12:00,66.0,65.0,29.92,SSW,192,2.0,4.0,96,0.00,,,0.65,,2013-06-01 02:12:00,
2013-05-31 22:21:00,66.0,65.0,29.92,SSW,192,1.0,3.0,96,0.01,,,0.66,,2013-06-01 02:21:00,
2013-05-31 22:32:00,66.0,65.0,29.93,SSE,153,1.0,6.0,96,0.05,,,0.70,,2013-06-01 02:32:00,
2013-05-31 22:42:00,66.0,65.0,29.93,SSE,161,0.0,7.0,96,0.05,,,0.70,,2013-06-01 02:42:00,
2013-05-31 22:52:00,66.0,65.0,29.93,SSE,161,0.0,7.0,96,0.05,,,0.70,,2013-06-01 02:52:00,
2013-05-31 23:02:00,66.0,65.0,29.93,SSE,161,1.0,3.0,95,0.06,,,0.71,,2013-06-01 03:02:00,
2013-05-31 23:11:00,66.0,65.0,29.93,SSE,161,1.0,3.0,95,0.06,,,0.71,,2013-06-01 03:11:00,
2013-05-31 23:22:00,66.0,65.0,29.93,SSE,150,0.0,4.0,95,0.07,,,0.73,,2013-06-01 03:22:00,
2013-05-31 23:33:00,66.0,65.0,29.93,SSE,150,0.0,2.0,96,0.04,,,0.74,,2013-06-01 03:33:00,
2013-05-31 23:43:00,66.0,65.0,29.93,SSE,159,2.0,5.0,96,0.05,,,0.75,,2013-06-01 03:43:00,
2013-05-31 23:53:00,66.0,65.0,29.93,SSE,159,2.0,5.0,96,0.05,,,0.75,,2013-06-01 03:53:00,